Location: Newark
(19.2128°S, 49.7858°W)
Time: 00:53:37
(UTC+00:00)

Envisat - Pass Details

Date: 02 September 2019
Orbit: 764 x 766 km, 98.1° (Epoch: 20 September)

Event Time Altitude Azimuth Distance (km) Brightness Sun altitude
Rises 21:53:20 0° 163° (SSE) 3,251 6.0 -10.7°
Reaches altitude 10° 21:55:41 10° 159° (SSE) 2,319 5.2 -11.2°
Maximum altitude 22:00:44 60° 79° (E) 876 3.0 -12.4°
Drops below altitude 10° 22:05:43 10° 359° (N) 2,294 5.5 -13.6°
Sets 22:08:02 0° 356° (N) 3,214 6.3 -14.1°
